OpenBCM V1.13 (Linux)

Packet Radio Mailbox

DB0FHN

[JN59NK Nuernberg]

 Login: GUEST





  
I0OJJ  > KEPS     26.02.26 02:33l 318 Lines 15036 Bytes #999 (0) @ AMSAT
BID : ORB26057.1
Read: GUEST OE5RCO DH1ME DJ6UX
Subj: 2Line Orbital Elements 26057.AMSAT
Path: DB0FHN<DB0RKB<DK0WUE<PI8ZTM<IR0AAB<I0OJJ<I0OJJ
Sent: 260226/0021z @:I0OJJ.ITA.EU [Rome] obcm1.13-38-g65b7

>From i0ojj%i0ojj.ita.eu@i0ojj.ampr.org Thu Feb 26 01:21:07 2026
Received: from i0ojj.ampr.org by i0ojj.ampr.org (JNOS2.0q) with SMTP
	id AA17053882 ; Thu, 26 Feb 2026 01:21:07 +0100
Message-Id: <ORB26057.1@i0ojj.bbs>
>From: i0ojj@i0ojj.ita.eu
X-JNOS-User-Port: Telnet   (i0ojj @ 44.134.109.10)  -> Sending message

From: I0OJJ @ I0OJJ.ITA.EU (Gustavo)
To:   KEPS @ AMSAT
X-Info: This message was generated automatically


QST de W1STR

AMSAT Orbital Elements for Amateur Satellites in TLE Format
>From Orbital Analysis Office
New England Sci-Tech STEM Education Center
Natick MA February 26, 2026
To all radio amateurs


These element sets describe the orbits of various satellites 
in use by the amateur radio community. For details see:
www.amsat.org/keplerian-elements-formats/

A daily update of element sets is available at:
www.amsat.org/tle/daily-bulletin.txt
or without bulletin text:
www.amsat.org/tle/dailytle.txt


AO-07
1 07530U 74089B   26056.52135025 -.00000026  00000-0  13111-3 0  9994
2 07530 101.9972  68.5802 0012070 345.6422 145.8051 12.53696054346526
UO-11
1 14781U 84021B   26056.79093227  .00001624  00000-0  17212-3 0  9993
2 14781  97.7925  23.7197 0007341 180.9905 179.1300 14.90454847240539
AO-27
1 22825U 93061C   26056.40016769  .00000095  00000-0  53195-4 0  9991
2 22825  98.7011 123.7995 0009403  71.7233 288.4972 14.30908385691010
FO-29
1 24278U 96046B   26056.52186898 -.00000014  00000-0  20784-4 0  9995
2 24278  98.5399 280.5863 0350329  26.3161 335.5316 13.53268125458066
GO-32
1 25397U 98043D   26056.51758792  .00000083  00000-0  55938-4 0  9998
2 25397  99.0012  46.4934 0001661 139.4980 220.6322 14.24402111435433
ISS
1 25544U 98067A   26056.63810093  .00009551  00000-0  18568-3 0  9990
2 25544  51.6319 131.9312 0008346 132.6774 227.4919 15.48288371554463
NO-44
1 26931U 01043C   26056.47470384  .00000166  00000-0  93089-4 0  9991
2 26931  67.0511 173.2021 0007023 265.5176  94.5123 14.31904619274457
SO-50
1 27607U 02058C   26056.61210508  .00001430  00000-0  18663-3 0  9994
2 27607  64.5515 114.1247 0074964 282.8659  76.4080 14.82727195247914
CO-55
1 27844U 03031E   26056.48051706  .00000326  00000-0  15999-3 0  9999
2 27844  98.6780  66.4309 0010223 144.6947 215.4911 14.24254300175771
CO-57
1 27848U 03031J   26056.48362161  .00000268  00000-0  13700-3 0  9996
2 27848  98.6808  66.2366 0009787 161.7487 198.4044 14.23551165175482
RS-22
1 27939U 03042A   26056.84456346  .00001571  00000-0  25160-3 0  9999
2 27939  98.3428 238.0768 0010198 261.5424 209.9942 14.73215607199159
CO-58
1 28895U 05043F   26056.41468058  .00001888  00000-0  30702-3 0  9999
2 28895  98.2811 209.8090 0014005 196.1322 163.9441 14.72255076 85308
CO-65
1 32785U 08021C   26056.83821373  .00005670  00000-0  37068-3 0  9995
2 32785  97.8180  36.1013 0010733  54.3003 305.9222 15.08166870968405
CO-66
1 32791U 08021J   26056.41941889  .00018343  00000-0  66382-3 0  9993
2 32791  97.7508  49.3465 0003451  32.0771 328.0677 15.28468831970199
RS-30
1 32953U 08025A   26056.79703144 -.00000013  00000-0 -16349-3 0  9993
2 32953  82.4990  64.7249 0019060 191.2695 168.7961 12.43175276805859
SRMSAT
1 37841U 11058D   26056.03605377  .00000426  00000-0  87806-4 0  9993
2 37841  19.9730  18.2874 0011878  51.0444  17.0147 14.11542222741957
ZACUBE-1
1 39417U 13066B   26056.79131153  .00004474  00000-0  35689-3 0  9992
2 39417  97.8184  18.5573 0040995 260.6651  98.9935 15.00176082664026
Delfi-N3xt
1 39428U 13066N   26056.68812627  .00005537  00000-0  50350-3 0  9997
2 39428  97.8340 337.2383 0075543 216.6875 142.9159 14.93453918657979
GOMX-1
1 39430U 13066Q   26056.83730140  .00002055  00000-0  31481-3 0  9992
2 39430  97.6581 264.2811 0130769  75.2247 286.3407 14.69044498653568
LO-74
1 39440U 13066AA  26056.83401353  .00004513  00000-0  42725-3 0  9998
2 39440  97.8789   5.4917 0059991  37.7488 322.7916 14.92779388660376
AO-73
1 39444U 13066AE  26056.42992518  .00007538  00000-0  49169-3 0  9994
2 39444  97.8169  25.7649 0035932 221.4379 138.4122 15.07647023662818
DTUSAT-2
1 40030U 14033W   26056.75817981  .00007744  00000-0  43913-3 0  9998
2 40030  98.0838  47.5748 0006014 251.4763 108.5814 15.13271715635823
EO-80
1 40032U 14033Y   26056.49873098  .00008283  00000-0  46760-3 0  9994
2 40032  98.0725  46.5932 0007198 180.3106 179.8120 15.13400159635769
LILACSAT-2
1 40908U 15049K   26056.87758300  .00017032  00000-0  33269-3 0  9996
2 40908  97.4835  89.6957 0005716 304.2563  55.8144 15.47525647578514
Horyu-4
1 41340U 16012D   26056.32349770  .00073433  00000-0  84799-3 0  9996
2 41340  30.9909 154.3475 0001282   6.0349 354.0318 15.60547813553173
Lapan A3
1 41603U 16040E   26056.87866007  .00004088  00000-0  13338-3 0  9997
2 41603  97.1477  56.7606 0012192  60.4990 299.7467 15.32258192537764
CAS-2T
1 41847U 16066G   26056.79243691  .00001427  00000-0  20744-3 0  9997
2 41847  98.3909 133.7726 0343835 107.4556 256.4525 14.44424224488715
TechnoSat
1 42829U 17042E   26056.38780260  .00004425  00000-0  32189-3 0  9993
2 42829  97.4132 218.4453 0019021 114.9597 245.3608 15.04156690469890
AO-91
1 43017U 17073E   26056.54048464  .00008552  00000-0  38966-3 0  9992
2 43017  97.4878 286.0943 0156428 354.1652   5.7750 15.10561778448522
S-Net D
1 43186U 18014G   26056.59185968  .00005320  00000-0  28459-3 0  9997
2 43186  97.5446 322.1232 0009979  52.5740 307.6399 15.15441709441857
S-Net B
1 43187U 18014H   26056.60119917  .00005674  00000-0  30349-3 0  9994
2 43187  97.5452 322.1155 0010522  47.9817 312.2309 15.15414143441853
S-Net A
1 43188U 18014J   26056.26111545  .00005675  00000-0  30329-3 0  9995
2 43188  97.5461 321.9665 0010479  49.6564 310.5582 15.15444788441803
S-Net C
1 43189U 18014K   26056.60448720  .00005751  00000-0  30753-3 0  9998
2 43189  97.5478 322.3647 0011644  41.3149 318.8961 15.15406447440407
Ten-Koh
1 43677U 18084G   26056.52059852  .00003059  00000-0  23588-3 0  9999
2 43677  98.0790 244.1973 0010753 130.1014 230.1153 15.02370241399391
PO-101
1 43678U 18084H   26056.84764562  .00002883  00000-0  23749-3 0  9999
2 43678  98.1047 248.3980 0010652 163.8009 196.3556 14.99891087399523
QO-100
1 43700U 18090A   26056.81517223  .00000135  00000-0  00000+0 0  9998
2 43700   0.0164 128.3502 0002480 239.4698 107.0709  1.00271385 26563
MinXSS-2
1 43758U 18099A   26056.43454561  .00029804  00000-0  76146-3 0  9995
2 43758  97.4655 130.0224 0007445 309.4025  50.6561 15.39394484396898
AO-95
1 43770U 18099N   26056.10414831  .00010965  00000-0  45445-3 0  9995
2 43770  97.4540 116.8981 0009536  31.8048 328.3763 15.24029301396134
SNUSat 2
1 43782U 18099AA  26056.09319993  .00009292  00000-0  43523-3 0  9995
2 43782  97.4221 111.2626 0009735 335.4601  24.6169 15.19889355395993
SnugLite
1 43784U 18099AC  26056.53118587  .00011157  00000-0  45704-3 0  9998
2 43784  97.4039 112.0356 0002044 356.7761   3.3463 15.24454755396293
ITASat 1
1 43786U 18099AE  26056.57616522  .00006638  00000-0  33422-3 0  9998
2 43786  97.4199 110.3510 0013470  28.6551 331.5421 15.17446150395978
EAGLET 1
1 43790U 18099AJ  26056.57621545  .00003804  00000-0  22513-3 0  9995
2 43790  97.4396 109.1860 0011612  19.3313 340.8355 15.11966270395462
ESEO
1 43792U 18099AL  26056.54563553  .00001352  00000-0  10237-3 0  9994
2 43792  97.4122  98.6548 0012164   1.3086 358.8170 15.03845948395022
JO-97
1 43803U 18099AX  26056.65270302  .00015861  00000-0  55178-3 0  9999
2 43803  97.4286 119.3326 0004840 313.2722  46.8114 15.29779754396555
Suomi 100
1 43804U 18099AY  26056.15658280  .00011198  00000-0  44296-3 0  9998
2 43804  97.4348 117.1077 0009253 321.2019  38.8554 15.25595062396323
ISAT
1 43879U 18111D   26056.78250491  .00047638  00000-0  86348-3 0  9998
2 43879  97.5894 344.8995 0005873  22.6116 337.5392 15.49463286393834
UWE-4
1 43880U 18111E   26056.32536535  .00030029  00000-0  77574-3 0  9993
2 43880  97.5849 340.1741 0009980  23.0393 337.1298 15.39031914393535
Sparrow
1 43881U 18111F   26056.37549059  .00059462  00000-0  95505-3 0  9990
2 43881  97.6109 348.7499 0006802  56.7203 303.4700 15.52815240393916
Prox-1
1 44339U 19036A   26056.56124432  .00013493  00000-0  14177-2 0  9990
2 44339  23.9947 138.2775 0006750 175.6912 184.3646 14.87616589356811
Taurus 1
1 44530U 19059C   26056.85599403  .00010235  00000-0  16906-2 0  9997
2 44530  98.6286 214.9601 0008167 296.5649  63.4718 14.70577808342277
TO-108
1 44881U 19093C   26056.83712007  .00001652  00000-0  19327-3 0  9993
2 44881  97.7631 131.7544 0015140  93.0952 267.1996 14.86313066334877
FloripaSat 1
1 44885U 19093G   26056.86348934  .00006303  00000-0  47836-3 0  9998
2 44885  97.7913 150.4098 0012534  88.5921 271.6739 15.02505967335929
RS-44
1 44909U 19096E   26056.52048463  .00000031  00000-0  73953-4 0  9997
2 44909  82.5179  53.9036 0218391  45.6953 316.1828 12.79747215288060
SALSAT
1 46495U 20068K   26056.49285060  .00008874  00000-0  32842-3 0  9996
2 46495  97.8851  52.9190 0009500 345.9317  14.1655 15.27897831298293
CSS (TIANHE-1)
1 48274U 21035A   26056.81085123  .00008676  00000-0  10780-3 0  9999
2 48274  41.4664 280.4104 0005797 195.9504 164.1153 15.60097250275754
CUTE
1 49263U 21088D   26056.21956620  .00040548  00000-0  40607-3 0  9994
2 49263  97.4236 147.7373 0003324   6.2853 353.8448 15.65450259244923
TeikyoSat 4
1 49396U 21102B   26056.34217578  .00001789  00000-0  11671-3 0  9997
2 49396  97.3820  90.1279 0010996 325.2517  34.7993 15.09050703235858
Z-Sat
1 49399U 21102E   26056.84827906  .00004737  00000-0  24046-3 0  9993
2 49399  97.3488  95.5386 0015278 276.5594  83.3900 15.17284409236557
KOSEN 1
1 49402U 21102H   26056.07826685  .00007253  00000-0  29229-3 0  9990
2 49402  97.3363 100.4545 0012784 240.0251 119.9719 15.25060477236923
